Location: *
(2.5500°S, 65.9667°W)
Time: 11:44:41
(UTC+00:00)

SWIFT - Pass Details

Date: 26 October 2021
Orbit: 543 x 558 km, 20.6° (Epoch: 29 November)

Event Time Altitude Azimuth Distance (km) Brightness Sun altitude
Rises 23:00:37 0° 307° (NW) 2,691 6.5 -12.3°
Reaches altitude 10° 23:03:03 10° 316° (NW) 1,797 5.3 -12.9°
Maximum altitude 23:06:51 33° 22° (NNE) 909 3.1 -13.8°
Enters shadow 23:08:34 24° 66° (ENE) 1,151 3.3 -14.2°
